Weather History for KRPD - October, 2013

Change the Weather History Date:

Friday, October 4, 2013

  Actual Average Record
Temperature  
Mean Temperature 55 °F -  
Max Temperature 57 °F 59 °F 78 °F (2011)
Min Temperature 53 °F 38 °F 28 °F (1999)
Degree Days  
Heating Degree Days 10    
Growing Degree Days 5 (Base 50)    
Moisture  
Dew Point 52 °F    
Average Humidity 89    
Maximum Humidity 95    
Minimum Humidity 78    
Precipitation  
Precipitation 0.07 in - - ()
Sea Level Pressure  
Sea Level Pressure 30.01 in    
Wind  
Wind Speed 9 mph (NE)    
Max Wind Speed 15 mph    
Max Gust Speed 23 mph    
Visibility 9 miles    
Events Rain , Thunderstorm    
Averages and records for this station are not official NWS values.
T = Trace of Precipitation, MM = Missing Value Source: NWS Daily Summary

Daily Weather History Graph

Daily Weather History Graph

Search for Another Location

Airport or City:

Trip Planner

Search our weather history database for the weather conditions in past years. The results will help you decide how hot, cold, wet, or windy it might be!

Date:

Astronomy

Oct. 04, 2013 Rise Set
Actual Time 7:09 AM CDT 6:41 PM CDT
Civil Twilight 6:39 AM CDT 7:10 PM CDT
Nautical Twilight 6:05 AM CDT 7:44 PM CDT
Astronomical Twilight 5:30 AM CDT 8:19 PM CDT
Moon 6:45 AM CDT (10/4) 6:22 PM CDT (10/4)
Length of Visible Light 12h 30m
Length of Day
11h 31m
Waning Crescent, 0% of the Moon is Illuminated
Oct 4
Waning Crescent
Oct 4
New
Oct 11
First Quarter
Oct 18
Full
Oct 26
Last Quarter

Hourly Weather History & Observations

Time (CDT) Temp. Dew Point Humidity Pressure Visibility Wind Dir Wind Speed Gust Speed Precip Events Conditions
12:15 AM 55.4 °F 53.6 °F 94% 29.95 in 7.0 mi North 8.1 mph - N/A   Drizzle
12:35 AM 55.4 °F 53.6 °F 94% 29.95 in 5.0 mi NNE 10.4 mph - 0.01 in   Drizzle
12:55 AM 55.4 °F 53.6 °F 94% 29.96 in 5.0 mi NNE 9.2 mph - 0.02 in   Drizzle
1:15 AM 55.4 °F 53.6 °F 94% 29.96 in 4.0 mi North 8.1 mph - N/A   Heavy Drizzle
1:35 AM 55.4 °F 53.6 °F 94% 29.97 in 4.0 mi NNE 8.1 mph - 0.01 in   Drizzle
1:55 AM 55.4 °F 53.6 °F 94% 29.97 in 5.0 mi North 6.9 mph - 0.01 in   Drizzle
2:15 AM 55.4 °F 53.6 °F 94% 29.98 in 10.0 mi North 8.1 mph - 0.01 in   Drizzle
2:35 AM 55.2 °F 53.6 °F 94% 29.98 in 7.0 mi North 9.2 mph - 0.01 in   Light Drizzle
2:55 AM 55.0 °F 53.6 °F 95% 29.98 in 10.0 mi NNE 9.2 mph - 0.01 in   Light Drizzle
3:15 AM 54.9 °F 53.2 °F 94% 29.99 in 7.0 mi NNE 9.2 mph - N/A   Light Drizzle
3:35 AM 54.5 °F 52.9 °F 94% 29.98 in 5.0 mi NNE 11.5 mph - N/A   Overcast
3:55 AM 54.3 °F 52.5 °F 94% 29.99 in 4.0 mi NNE 11.5 mph - N/A   Overcast
4:15 AM 54.0 °F 52.2 °F 94% 29.98 in 7.0 mi NNE 9.2 mph - N/A   Overcast
4:35 AM 53.8 °F 51.8 °F 93% 29.99 in 10.0 mi NE 8.1 mph - N/A   Overcast
4:55 AM 53.6 °F 51.6 °F 93% 29.99 in 10.0 mi NE 5.8 mph - N/A   Overcast
5:15 AM 53.8 °F 51.1 °F 91% 30.00 in 10.0 mi NE 3.5 mph - N/A   Overcast
5:35 AM 53.6 °F 50.9 °F 91% 30.01 in 10.0 mi NE 4.6 mph - N/A   Overcast
5:55 AM 53.6 °F 50.9 °F 91% 30.00 in 10.0 mi NNE 5.8 mph - N/A   Overcast
6:15 AM 53.6 °F 50.9 °F 91% 30.01 in 10.0 mi NNE 5.8 mph - N/A   Overcast
6:35 AM 53.2 °F 50.9 °F 92% 30.01 in 10.0 mi NE 3.5 mph - N/A   Overcast
6:55 AM 53.2 °F 50.9 °F 92% 30.02 in 10.0 mi NNE 6.9 mph - N/A   Overcast
7:15 AM 53.1 °F 50.7 °F 92% 30.02 in 10.0 mi NNE 6.9 mph - N/A   Overcast
7:35 AM 53.1 °F 50.4 °F 91% 30.01 in 10.0 mi NNE 10.4 mph - N/A   Overcast
7:55 AM 53.1 °F 50.4 °F 91% 30.02 in 10.0 mi NNE 8.1 mph - N/A   Overcast
8:15 AM 53.2 °F 50.5 °F 91% 30.02 in 10.0 mi NNE 8.1 mph - N/A   Overcast
8:35 AM 53.6 °F 50.5 °F 89% 30.03 in 10.0 mi NE 3.5 mph - N/A   Overcast
8:55 AM 53.8 °F 50.9 °F 90% 30.04 in 10.0 mi NE 4.6 mph - N/A   Overcast
9:15 AM 54.0 °F 50.9 °F 89% 30.05 in 10.0 mi NE 3.5 mph - N/A   Overcast
9:35 AM 54.1 °F 51.1 °F 89% 30.03 in 10.0 mi NE 5.8 mph - N/A   Overcast
9:55 AM 54.5 °F 51.3 °F 89% 30.03 in 10.0 mi NE 9.2 mph - N/A   Overcast
10:15 AM 54.9 °F 51.1 °F 87% 30.03 in 10.0 mi NNE 6.9 mph - N/A   Overcast
10:35 AM 55.0 °F 51.1 °F 86% 30.03 in 10.0 mi NNE 9.2 mph - N/A   Overcast
10:55 AM 55.4 °F 51.1 °F 85% 30.03 in 10.0 mi NE 8.1 mph - N/A   Overcast
11:15 AM 55.4 °F 50.9 °F 85% 30.01 in 10.0 mi NE 11.5 mph - N/A   Overcast
11:35 AM 55.9 °F 51.1 °F 84% 30.02 in 10.0 mi NE 9.2 mph 16.1 mph N/A   Overcast
11:55 AM 56.3 °F 51.1 °F 83% 30.03 in 10.0 mi NE 9.2 mph - N/A   Overcast
12:15 PM 56.7 °F 51.1 °F 82% 30.04 in 10.0 mi NE 10.4 mph - N/A   Overcast
12:35 PM 56.8 °F 50.9 °F 80% 30.05 in 10.0 mi ENE 9.2 mph - N/A   Overcast
12:55 PM 57.0 °F 50.9 °F 80% 30.05 in 10.0 mi ENE 9.2 mph 16.1 mph N/A   Overcast
1:15 PM 56.8 °F 50.2 °F 78% 30.05 in 10.0 mi ENE 10.4 mph - N/A   Overcast
1:35 PM 57.2 °F 50.5 °F 78% 30.04 in 10.0 mi NE 9.2 mph - N/A   Overcast
1:55 PM 57.2 °F 50.7 °F 79% 30.04 in 10.0 mi NE 10.4 mph - N/A   Overcast
2:15 PM 57.2 °F 50.7 °F 79% 30.02 in 10.0 mi NE 9.2 mph - N/A   Overcast
2:35 PM 57.2 °F 50.7 °F 79% 30.02 in 10.0 mi ENE 10.4 mph - N/A   Overcast
2:55 PM 57.2 °F 50.9 °F 79% 30.02 in 10.0 mi ENE 8.1 mph - N/A Rain Light Rain
3:15 PM 56.3 °F 52.2 °F 86% 30.02 in 10.0 mi ENE 4.6 mph - N/A   Drizzle
3:35 PM 56.3 °F 52.9 °F 88% 30.02 in 5.0 mi ENE 5.8 mph - 0.02 in Rain Rain
3:55 PM 56.5 °F 53.6 °F 90% 30.01 in 10.0 mi NE 6.9 mph - 0.03 in   Light Drizzle
4:15 PM 56.7 °F 53.8 °F 90% 30.01 in 10.0 mi NE 8.1 mph - N/A   Overcast
4:35 PM 56.8 °F 53.6 °F 89% 30.01 in 10.0 mi ENE 9.2 mph - N/A   Overcast
4:55 PM 56.7 °F 53.2 °F 88% 30.02 in 10.0 mi ENE 9.2 mph - N/A   Overcast
5:15 PM 56.7 °F 53.2 °F 88% 30.01 in 10.0 mi NE 9.2 mph - N/A   Overcast
5:35 PM 56.7 °F 52.9 °F 87% 30.01 in 10.0 mi ENE 9.2 mph - N/A   Overcast
5:55 PM 56.7 °F 52.9 °F 87% 30.01 in 10.0 mi ENE 10.4 mph 16.1 mph N/A   Overcast
6:15 PM 56.7 °F 52.7 °F 87% 30.01 in 10.0 mi ENE 8.1 mph 17.3 mph N/A   Overcast
6:35 PM 56.5 °F 52.7 °F 87% 30.01 in 10.0 mi ENE 11.5 mph - N/A   Overcast
6:55 PM 56.3 °F 52.7 °F 88% 30.00 in 10.0 mi NE 9.2 mph - N/A   Overcast
7:15 PM 56.3 °F 53.1 °F 89% 30.00 in 10.0 mi ENE 11.5 mph - N/A   Overcast
7:35 PM 56.3 °F 53.1 °F 89% 30.00 in 10.0 mi ENE 12.7 mph 17.3 mph N/A   Overcast
7:55 PM 56.3 °F 53.1 °F 89% 30.00 in 10.0 mi ENE 11.5 mph - N/A   Overcast
8:15 PM 56.3 °F 53.1 °F 89% 30.01 in 10.0 mi ENE 9.2 mph - N/A   Overcast
8:35 PM 56.3 °F 53.1 °F 89% 30.01 in 10.0 mi ENE 10.4 mph - N/A   Overcast
8:55 PM 56.1 °F 53.1 °F 89% 30.01 in 10.0 mi ENE 10.4 mph - N/A   Overcast
9:15 PM 55.6 °F 53.2 °F 92% 30.01 in 10.0 mi ENE 9.2 mph 19.6 mph N/A Rain Light Rain
9:35 PM 55.6 °F 53.2 °F 92% 30.01 in 10.0 mi East 10.4 mph 16.1 mph N/A   Overcast
9:55 PM 55.4 °F 53.4 °F 93% 30.00 in 7.0 mi East 9.2 mph 18.4 mph N/A Rain Light Rain
10:15 PM 55.6 °F 53.2 °F 92% 29.99 in 10.0 mi ENE 11.5 mph 18.4 mph N/A   Overcast
10:35 PM 55.6 °F 53.2 °F 92% 29.99 in 7.0 mi ENE 15.0 mph 19.6 mph N/A   Overcast
10:55 PM 55.6 °F 52.9 °F 91% 29.98 in 10.0 mi ENE 11.5 mph 19.6 mph N/A   Overcast
11:15 PM 55.8 °F 53.1 °F 91% 29.98 in 10.0 mi East 10.4 mph 17.3 mph N/A   Overcast
11:35 PM 55.9 °F 52.9 °F 89% 29.97 in 10.0 mi East 13.8 mph 20.7 mph N/A Thunderstorm Overcast
11:55 PM 55.8 °F 52.7 °F 89% 29.96 in 10.0 mi East 12.7 mph 23.0 mph N/A Rain Light Rain